Location: Fontevrault
(47.1823°N, 0.0493°E)
Time: 04:36:26
(UTC+00:00)

Uosat 12 SS-18 rocket - Pass Details

Date: 28 October 2021
Orbit: 579 x 1405 km, 64.6° (Epoch: 01 December)

Event Time Altitude Azimuth Distance (km) Brightness Sun altitude
Rises 20:51:04 0° 319° (NW) 3,728 8.8 -40.7°
Reaches altitude 10° 20:53:53 10° 330° (NNW) 2,905 8.0 -41.2°
Enters shadow 20:57:13 24° 355° (N) 2,176 7.0 -41.7°
